KB0DHM Weather Reports


time (UTC)temp
F
wind
direction
speed
knots
gust
knots
rain 1hr
in
rain 24hr
in
rain mn
in
humidity
%
barometer
mb
20260504050005 56 72 0.0 0.0 0.00 0.56 0.00 45 1000.9
20260504044502 55 72 0.0 0.0 0.00 0.56 0.56 46 1001.2
20260504043104 54 72 0.0 0.0 0.00 0.56 0.56 47 1001.5
20260504041558 54 72 0.0 0.0 0.01 0.56 0.56 49 1001.9
20260504040037 54 72 0.0 0.0 0.01 0.56 0.56 48 1002.3
20260504034535 54 72 0.0 0.0 0.02 0.56 0.56 49 1002.5
20260504033015 55 72 0.0 0.0 0.03 0.56 0.56 47 1002.9
20260504031514 56 72 0.0 0.0 0.02 0.56 0.56 45 1003.1
20260504030054 57 72 0.0 0.0 0.02 0.56 0.56 42 1003.5
20260504024552 58 72 0.0 0.0 0.01 0.55 0.55 41 1003.6
20260504023032 59 72 0.0 0.0 0.01 0.54 0.54 38 1003.7
20260504021533 60 72 0.0 0.0 0.01 0.54 0.54 36 1003.9
20260504020014 62 72 0.0 0.0 0.01 0.54 0.54 35 1003.9
20260504014514 63 72 0.0 0.0 0.01 0.54 0.54 33 1003.9
20260504013111 65 72 0.0 0.0 0.00 0.53 0.53 31 1003.9
20260504011555 66 72 0.0 0.0 0.00 0.53 0.53 28 1003.9
20260504010039 68 72 0.0 0.0 0.00 0.53 0.53 27 1004.0
20260504004534 70 72 0.0 0.0 0.00 0.53 0.53 24 1004.1
20260504003015 70 72 0.0 0.0 0.00 0.53 0.53 25 1004.2
20260504001513 70 72 0.0 0.0 0.00 0.53 0.53 23 1004.3
20260504000109 70 72 0.0 0.0 0.00 0.53 0.53 23 1004.3
20260503234554 71 72 0.0 0.9 0.00 0.53 0.53 22 1004.4
20260503233033 72 72 0.0 0.0 0.00 0.53 0.53 23 1004.4
20260503231533 73 72 0.0 0.0 0.00 0.53 0.53 22 1004.5
20260503230021 74 72 0.0 0.9 0.00 0.53 0.53 22 1004.7
20260503224519 74 72 0.0 0.0 0.00 0.53 0.53 22 1004.7
20260503223018 74 72 0.0 0.9 0.00 0.53 0.53 22 1004.9
20260503221515 73 72 0.0 1.7 0.00 0.53 0.53 21 1005.0
20260503220013 72 71 0.0 0.9 0.03 0.53 0.53 22 1005.1
20260503214518 71 69 0.0 0.9 0.03 0.53 0.53 24 1005.3
20260503213011 71 69 0.0 2.6 0.03 0.53 0.53 23 1005.3
20260503211510 72 69 0.0 1.7 0.03 0.53 0.53 23 1005.5
20260503210110 70 69 0.0 2.6 0.00 0.50 0.50 22 1005.8
20260503204551 69 69 0.0 1.7 0.01 0.52 0.50 23 1005.8
20260503203054 70 69 0.0 0.9 0.01 0.52 0.50 22 1006.1
20260503201530 70 69 0.0 0.9 0.01 0.52 0.50 24 1006.1
20260503200029 68 69 0.0 0.9 0.01 0.52 0.50 26 1006.3
20260503194510 69 69 0.0 1.7 0.00 0.51 0.49 23 1006.4
20260503193012 68 69 0.0 1.7 0.00 0.51 0.49 24 1006.7
20260503191549 67 69 0.0 3.5 0.00 0.51 0.49 25 1006.8
20260503190048 66 69 0.0 1.7 0.00 0.51 0.49 24 1007.0
20260503184528 66 69 0.0 2.6 0.00 0.51 0.49 25 1007.1
20260503183027 66 69 0.0 2.6 0.00 0.51 0.49 27 1007.2
20260503181509 66 69 0.0 1.7 0.00 0.51 0.49 27 1007.2
20260503180008 66 69 0.0 1.7 0.00 0.51 0.49 29 1007.4
20260503174551 66 69 0.0 2.6 0.00 0.51 0.49 31 1007.5
20260503173102 67 69 0.0 3.5 0.49 0.51 0.49 29 1007.5
20260503171531 66 69 0.0 0.9 0.49 0.51 0.49 33 1007.5
20260503081518 53 69 0.0 0.0 0.00 0.02 0.00 56 1005.7
20260503071528 55 69 0.0 0.0 0.00 0.02 0.00 55 1006.0